Miscellaneous Local Product
Issued by NWS North Platte, NE

Home | Current Version | Previous Version | Graphics & Text | Print | Product List | Glossary On
Versions: 1 2 3 4 5 6 7 8 9 10 11 12 13 14 15 16 17 18 19 20 21 22 23 24 25 26 27 28 29 30 31 32 33 34 35 36 37 38 39 40 41 42 43 44 45 46 47 48 49 50
000
AXUS43 KLBF 250810
MISLBF


WESTERN AND NORTH CENTRAL NEBRASKA HOURLY WEATHER ROUNDUP
NATIONAL WEATHER SERVICE NORTH PLATTE NE
200 AM CST SUN FEB 25 2018

NOTE: "FAIR" INDICATES FEW OR NO CLOUDS BELOW 12,000 FEET WITH NO
SIGNIFICANT WEATHER AND/OR OBSTRUCTIONS TO VISIBILITY.

NOTE: STATIONS NOT REPORTING VARIABLES SUCH AS SKY/WEATHER OR
PRESSURE ARE PROVIDED BY RAWS AND APRS NETWORKS AND ARE NOT UNDER
NATIONAL WEATHER SERVICE QUALITY CONTROL.

...OBSERVATIONS IN AND NEAR THE EASTERN PANHANDLE OF NEBRASKA...

CITY           SKY/WX    TMP DP  RH WIND       PRES   REMARKS
PINE RIDGE     MOCLDY    17   7  64 SW6       29.78S WCI   9
GORDON         FAIR      15   4  63 W10       29.76S WCI   2
CHADRON        CLOUDY     8   2  76 SW3       29.80R
ALLIANCE       CLOUDY    21  12  68 W15       29.79R WCI   8
SIDNEY         CLOUDY    27  10  49 W15       29.83S WCI  15
CRESCENT LAKE    N/A     26  12  55 W13         N/A  WCI  15
$$

...OBSERVATIONS IN NORTHERN NEBRASKA AND FAR SOUTHERN SOUTH DAKOTA...

CITY           SKY/WX    TMP DP  RH WIND       PRES   REMARKS
WINNER         FAIR      20   9  62 SW13      29.73R WCI   7
VALENTINE      CLEAR     16   7  67 W13       29.77R WCI   2
AINSWORTH      CLEAR     20  11  69 W14       29.78R WCI   6
O`NEILL        CLEAR     18  11  73 SW13      29.79R WCI   5
THEDFORD       CLEAR     21  11  66 W12       29.82S WCI   9
BROKEN BOW     CLEAR     13   4  67 W9        29.82F WCI   1
ORD            CLEAR     20  11  68 NW8       29.83S WCI  10
ALBION         CLEAR     20  12  71 NW9       29.83F WCI  10
VALENTINE NWR    N/A     19   8  61 W12         N/A  WCI   7
HALSEY           N/A     18   8  65 W7          N/A  WCI   9
BUTTE            N/A     17  11  77 W10G17      N/A  WCI   5
CHAMBERS         N/A     15   6  66 W3          N/A
EWING            N/A     16  10  76 W5          N/A  WCI   9
$$

...OBSERVATIONS IN SOUTHWEST NEBRASKA AND FAR NORTHEAST COLORADO...

CITY           SKY/WX    TMP DP  RH WIND       PRES   REMARKS
WRAY           PTSUNNY   28  16  59 SW9       29.89S WCI  20
HOLYOKE        FAIR      30  14  51 SW8       29.86R WCI  23
IMPERIAL       MOCLDY    24  16  71 SW7       29.86F WCI  16
OGALLALA       PTCLDY    19  12  74 W8        29.84F WCI   9
NORTH PLATTE   CLEAR      8   4  83 NW3       29.86S
MCCOOK         PTCLDY    24  15  68 W8        29.91R WCI  15
LEXINGTON      CLEAR     19  14  82 W5        29.89R WCI  12
STAPLETON        N/A     12   7  79 CALM        N/A
$$

...OBSERVATIONS IN CENTRAL LINCOLN COUNTY AREA...

CITY           SKY/WX    TMP DP  RH WIND       PRES   REMARKS
N.P. AIRPORT   CLEAR      8   4  83 NW3       29.86S
N.P. DOWNTOWN    N/A     11   8  85 CALM        N/A
N.P. SOUTHEAST   N/A     14   9  79 CALM        N/A
N.P. HILLCREST   N/A     15  10  80 NW5         N/A  WCI   8
$$

...OBSERVATIONS ACROSS THE ROCKIES AND WESTERN HIGH PLAINS...

CITY           SKY/WX    TMP DP  RH WIND       PRES   REMARKS
RAPID CITY     PTCLDY    10   1  67 CALM      29.71R
SCOTTSBLUFF    CLOUDY    26  14  60 NW8       29.82R WCI  18
CHEYENNE       MOCLDY    20   5  52 NW7       29.78R WCI  11
DENVER         PTCLDY    22   3  44 S6        29.83F WCI  14
BERTHOUD PASS  LGT SNOW  -6 -15  65 W30G39    29.59F WCI -34
COPPER MTN     LGT SNOW   3  -4  72 W7        29.67S WCI  -9
MONARCH PASS   CLOUDY     1  -4  78 SW26G33   29.79F WCI -23
ASPEN          CLOUDY    13   9  84 CALM      29.85S FOG
LARAMIE        PTCLDY    11   2  67 VRB3      29.76R
CASPER         MOCLDY    18  10  71 SW18      29.77S WCI   2
$$

...OBSERVATIONS ACROSS THE NORTHERN PLAINS...

CITY           SKY/WX    TMP DP  RH WIND       PRES   REMARKS
BISMARCK       MOCLDY    15   9  76 NW7       29.59S WCI   5
FARGO          CLOUDY    16  14  92 W6        29.53F WCI   7
PIERRE         CLEAR     19  10  68 W16       29.68R WCI   4
SIOUX FALLS    CLEAR     12   7  80 W13       29.69F WCI  -3
$$

...OBSERVATIONS ACROSS THE CENTRAL AND SOUTHERN PLAINS...

CITY           SKY/WX    TMP DP  RH WIND       PRES   REMARKS
OMAHA          CLEAR     25  16  68 W7        29.87R WCI  17
GRAND ISLAND   CLEAR     22  14  71 W10       29.87S WCI  11
KANSAS CITY    CLEAR     31  24  75 W9        29.96R WCI  23
WICHITA        CLEAR     31  26  82 NW7       29.99F WCI  24
DODGE CITY     CLOUDY    22   7  52 NE9       29.96F WCI  12
OKLAHOMA CITY  CLEAR     30  28  92 S5        30.00F WCI  25
DALLAS         PTCLDY    47  43  86 NE3       30.00F
AMARILLO       CLEAR     30   3  31 SW14      29.94F WCI  19
$$




USA.gov is the U.S. government's official web portal to all federal, state and local government web resources and services.